20140917,11
20140918,11
20140919,11
20140922,11
20140924,11
20140925,11
20140926,11
20140929,11
20140930,11
20141001,11
20141002,11
20141003,11
20141006,11
20141007,11
20141008,11
20141009,11
20141010,11
20141014,11
20141015,11
20141016,11
20141017,11
20141020,11
20141021,11
20141022,11
20141023,11
20141024,11
20141027,11
20141028,11
20141029,11
20141030,11
20141031,11
20141104,11
20141105,11
20141106,11
20141107,11
20141110,11
20141111,11
20141112,11
20141113,11
20141114,11
20141117,11
20141118,11
20141119,11
20141120,11
20141121,11
20141125,11
20141126,11
20141127,11
20141128,11
20141201,11
20141202,11
20141203,11
20141204,11
20141205,11
20141208,11
20141209,11
20141210,11
20141211,11
20141212,11
20141215,11
20141216,11
20141217,11
20141218,11
20141219,11
20141222,11
20141224,11
20141225,11
20141226,11
20141229,11
20141230,11
20150105,16
20150106,20
20150107,20
20150108,22
20150109,33
20150113,32
20150114,54
20150115,205
20150116,217
20150119,231
20150120,291
20150121,292
20150122,311
20150123,357
20150126,370
20150127,371
20150128,386
20150129,390
20150130,404
20150202,443
20150203,442
20150204,448
20150205,459
20150206,471
20150209,492
20150210,493
20150212,534
20150213,538
20150216,542
20150217,543
20150218,543
20150219,550
20150220,567
20150223,586
20150224,588
20150225,693
20150226,707
20150227,756
20150302,779
20150303,786
20150304,785
20150305,789
20150306,799
20150309,794
20150310,793
20150311,800
20150312,818
20150313,822
20150316,830
20150317,847
20150318,849
20150319,856
20150320,879
20150323,889
20150324,898
20150325,926
20150326,957
20150327,1008
20150330,1066
20150331,1083
20150401,1114
20150402,1133
20150403,1141
20150406,1154
20150407,1154
20150408,1161
20150409,1198
20150410,1201
20150413,1237
20150414,1262
20150415,1264
20150416,1281
20150417,1293
20150420,1290
20150421,1307
20150422,1342
20150423,1390
20150424,1405
20150427,1418
20150428,1445
20150430,1471
20150501,1478
20150507,1488
20150508,1484
20150511,1516
20150512,1518
20150513,1514
20150514,1525
20150515,1535
20150518,1562
20150519,1586
20150520,1634
20150521,1677
20150522,1730
20150525,1859
20150526,2000
20150527,1996
20150528,2121
20150529,2199
20150601,2394
20150602,2429
20150603,2556
20150604,2612
20150605,2650
20150608,2703
20150609,2854
20150610,2968
20150611,3105
20150612,3189
20150615,3233
20150616,3280
20150617,3367
20150618,3420
20150619,3500
20150622,3613
20150623,3702
20150624,3850
20150625,3945
20150626,4035
20150629,4380
20150630,4480
20150701,4563
20150702,4623
20150703,4659
20150706,4722
20150707,4693
20150708,4780
20150709,4808
20150710,4981
20150713,5027
20150714,5098
20150715,5154
20150716,5213
20150717,5288
20150721,5415
20150722,5492
20150723,5510
20150724,6050
20150727,6095
20150728,6087
20150729,6174
20150730,6285
20150731,6371
20150803,6456
20150804,6517
20150805,6546
20150806,6568
20150807,6738
20150810,6790
20150811,6837
20150812,6831
20150813,6814
20150814,6872
20150817,6949
20150818,7007
20150819,7065
20150820,7074
20150821,7075
20150824,7068
20150825,6989
20150826,7147
20150827,7162
20150828,7301
20150831,7377
20150901,7425
20150902,7376
20150903,7449
20150904,7491
20150907,7466
20150908,7485
20150909,7523
20150910,7623
20150911,7569
20150914,7562
20150915,7574
20150916,7661
20150917,7692
20150918,7715
20150924,7634
20150925,7622
20150928,7809
20150929,7793
20150930,7715
20151001,7782
20151002,7793
20151005,7761
20151006,7863
20151007,7923
20151008,7997
20151009,8004
20151013,8066
20151014,8055
20151015,8045
20151016,8085
20151019,8140
20151020,8162
20151021,8197
20151022,8231
20151023,8287
20151026,8387
20151027,8406
20151028,8442
20151029,8545
20151030,8557
20151102,8616
20151104,8699
20151105,8795
20151106,8865
20151109,8881
20151110,9044
20151111,9101
20151112,9317
20151113,9434
20151116,9444
20151117,9616
20151118,9803
20151119,9880
20151120,10068
20151124,10152
20151125,10193
20151126,10308
20151127,10479
20151130,10500
20151201,10658
20151202,10820
20151203,10924
20151204,10977
20151207,11059
20151208,11191
20151209,11158
20151210,11190
20151211,11309
20151214,11347
20151215,11368
20151216,11531
20151217,11689
20151218,12077
20151221,12149
20151222,12244
20151224,12471
20151225,12725
20151228,12724
20151229,12746
20151230,13151
20160104,13255
20160105,13204
20160106,13249
20160107,13246
20160108,13200
20160112,13189
20160113,13244
20160114,13281
20160115,13176
20160118,13122
20160119,13180
20160120,13199
20160121,13176
20160122,13145
20160125,13390
20160126,13450
20160127,13542
20160128,13609
20160129,13690
20160201,13836
20160202,13924
20160203,13895
20160204,13888
20160205,13874
20160208,13946
20160209,13837
20160210,13724
20160212,13664
20160215,13654
20160216,13671
20160217,13864
20160218,14054
20160219,14156
20160222,14121
20160223,14234
20160224,14254
20160225,14130
20160226,14262
20160229,14325
20160301,14377
20160302,14469
20160303,14549
20160304,14607
20160307,14641
20160308,14662
20160309,14709
20160310,14729
20160311,14818
20160314,14902
20160315,14994
20160316,14966
20160317,14984
20160318,15025
20160322,15160
20160323,15182
20160324,15202
20160325,15167
20160328,15293
20160329,15292
20160330,15275
20160331,15507
20160401,15613
20160404,15579
20160405,15641
20160406,15573
20160407,15589
20160408,15629
20160411,15676
20160412,15704
20160413,15713
20160414,15856
20160415,15908
20160418,15928
20160419,15910
20160420,16010
20160421,16042
20160422,16067
20160425,16022
20160426,15998
20160427,16033
20160428,16061
20160502,16106
20160506,16030
20160509,16031
20160510,16091
20160511,16145
20160512,16157
20160513,16164
20160516,16180
20160517,16222
20160518,16270
20160519,16298
20160520,16287
20160523,16338
20160524,16411
20160525,16469
20160526,16602
20160527,16731
20160530,16774
20160531,16662
20160601,16674
20160602,16677
20160603,16590
20160606,16612
20160607,16659
20160608,16720
20160609,16753
20160610,16786
20160613,16733
20160614,16689
20160615,16629
20160616,16612
20160617,16417
20160620,16465
20160621,16647
20160622,16715
20160623,16760
20160624,16836
20160627,16573
20160628,16466
20160629,16562
20160630,16693
20160701,16750
20160704,16861
20160705,16889
20160706,16865
20160707,16825
20160708,16887
20160711,16927
20160712,17127
20160713,17235
20160714,17245
20160715,17269
20160719,17265
20160720,17277
20160721,17274
20160722,17209
20160725,17378
20160726,17415
20160727,17430
20160728,17453
20160729,17441
20160801,17457
20160802,17485
20160803,17435
20160804,17447
20160805,17407
20160808,17458
20160809,17424
20160810,17525
20160812,17576
20160815,17637
20160816,17685
20160817,17617
20160818,17665
20160819,17762
20160822,17852
20160823,17906
20160824,18018
20160825,18191
20160826,18205
20160829,18242
20160830,18232
20160831,18361
20160901,18498
20160902,18477
20160905,18556
20160906,18451
20160907,18470
20160908,18587
20160909,18607
20160912,18581
20160913,18383
20160914,18418
20160915,18399
20160916,18469
20160920,18627
20160921,18775
20160923,18967
20160926,18936
20160927,18982
20160928,19092
20160929,19239
20160930,19367
20161003,19435
20161004,19483
20161005,19526
20161006,19484
20161007,19467
20161011,19582
20161012,19541
20161013,19548
20161014,19526
20161017,19637
20161018,19627
20161019,19717
20161020,19772
20161021,19827
20161024,19838
20161025,19931
20161026,19927
20161027,19860
20161028,19897
20161031,19889
20161101,19955
20161102,19895
20161104,19686
20161107,19661
20161108,19833
20161109,19871
20161110,19847
20161111,19817
20161114,19748
20161115,19687
20161116,19705
20161117,19814
20161118,19883
20161121,19951
20161122,19981
20161124,20095
20161125,20109
20161128,20158
20161129,20374
20161130,20475
20161201,20590
20161202,20589
20161205,20672
20161206,20812
20161207,21048
20161208,21145
20161209,21409
20161212,21530
20161213,21654
20161214,21768
20161215,21880
20161216,21966
20161219,22051
20161220,22114
20161221,22221
20161222,22245
20161226,22549
20161227,22711
20161228,22736
20161229,22994
20161230,23064
20170104,23303
20170105,23436
20170106,23558
20170110,23582
20170111,23530
20170112,23589
20170113,23546
20170116,23642
20170117,23645
20170118,23591
20170119,23817
20170120,23873
20170123,23916
20170124,23929
20170125,24004
20170126,24141
20170127,24232
20170130,24235
20170131,24320
20170201,24340
20170202,24411
20170203,24506
20170206,24603
20170207,24614
20170208,24650
20170209,24653
20170210,24722
20170213,24830
20170214,24953
20170215,24991
20170216,25033
20170217,25249
20170220,25246
20170221,25333
20170222,25414
20170223,25642
20170224,25750
20170227,25798
20170228,25911
20170301,26031
20170302,26241
20170303,26340
20170306,26272
20170307,26253
20170308,26073
20170309,26127
20170310,26138
20170313,26166
20170314,26351
20170315,26387
20170316,26701
20170317,26943
20170321,27071
20170322,27117
20170323,27125
20170324,27237
20170327,27286
20170328,27408
20170329,27617
20170330,28004
20170331,28375
20170403,28606
20170404,28647
20170405,28679
20170406,28814
20170407,28897
20170410,29271
20170411,29362
20170412,29476
20170413,29618
20170414,29680
20170417,29792
20170418,29791
20170419,29736
20170420,30253
20170421,30267
20170424,30521
20170425,30883
20170426,31167
20170427,31366
20170428,32220
20170501,32425
20170502,32556
20170508,32684
20170509,32908
20170510,33155
20170511,33248
20170512,33464
20170515,33648
20170516,33916
20170517,34148
20170518,34206
20170519,34114
20170522,34278
20170523,34479
20170524,34697
20170525,34883
20170526,35070
20170529,35235
20170530,35473
20170531,35462
20170601,35946
20170602,36036
20170605,36201
20170606,36347
20170607,36418
20170608,36423
20170609,36464
20170612,36577
20170613,36664
20170614,37000
20170615,37296
20170616,37388
20170619,37579
20170620,37795
20170621,38218
20170622,38818
20170623,39413
20170626,39999
20170627,40217
20170628,40667
20170629,41270
20170630,41709
20170703,42474
20170704,43347
20170705,43520
20170706,43491
20170707,43736
20170710,44076
20170711,44270
20170712,44415
20170713,44870
20170714,45175
20170718,45538
20170719,45573
20170720,46054
20170721,46449
20170724,46539
20170725,46844
20170726,47154
20170727,47383
20170728,47712
20170731,48037
20170801,48407
20170802,48664
20170803,48796
20170804,48874
20170807,49160
20170808,49360
20170809,49523
20170810,49488
20170814,49161
20170815,49636
20170816,49983
20170817,50286
20170818,50585
20170821,50448
20170822,50687
20170823,51286
20170824,51494
20170825,51693
20170828,51949
20170829,52068
20170830,52067
20170831,52432
20170901,52891
20170904,53076
20170905,53182
20170906,53118
20170907,53257
20170908,53449
20170911,53682
20170912,54029
20170913,54291
20170914,54441
20170915,54468
20170919,54816
20170920,54906
20170921,55095
20170922,55330
20170925,55489
20170926,55762
20170927,56116
20170928,56410
20170929,56788
20171002,57753
20171003,58114
20171004,58385
20171005,58414
20171006,58686
20171010,58975
20171011,59207
20171012,59431
20171013,59615
20171016,59835
20171017,60010
20171018,60135
20171019,60326
20171020,60442
20171023,60756
20171024,61025
20171025,61079
20171026,61272
20171027,61562
20171030,61814
20171031,62525
20171101,62941
20171102,63374
20171106,63578
20171107,63844
20171108,64003
20171109,64052
20171110,63838
20171113,63918
20171114,63880
20171115,64102
20171116,64086
20171117,64553
20171120,64931
20171121,65140
20171122,65649
20171124,65806
20171127,65903
20171128,66095
20171129,66401
20171130,66598
20171201,66694
20171204,66966
20171205,67265
20171206,67373
20171207,67366
20171208,67373
20171211,67583
20171212,67807
20171213,68171
20171214,68451
20171215,68543
20171218,68675
20171219,69409
20171220,69528
20171221,69641
20171222,69719
20171225,70033
20171226,70357
20171227,70355
20171228,70439
20171229,71111
20180104,71627
20180105,72190
20180109,73015
20180110,73245
20180111,73349
20180112,73635
20180115,73915
20180116,74081
20180117,74329
20180118,74565
20180119,74864
20180122,75112
20180123,75633
20180124,76562
20180125,76726
20180126,76678
20180129,77247
20180130,77539
20180131,77373
20180201,77807
20180202,78249
20180205,78033
20180206,77542
20180207,76987
20180208,77374
20180209,77162
20180213,76769
20180214,76923
20180215,77201
20180216,77976
20180219,78432
20180220,78602
20180221,78677
20180222,79237
20180223,79262
20180226,79624
20180227,79871
20180228,80121
20180301,80144
20180302,79848
20180305,79343
20180306,79510
20180307,80101
20180308,80002
20180309,80213
20180312,80495
20180313,80799
20180314,80878
20180315,80803
20180316,80868
20180319,81093
20180320,80902
20180322,80906
20180323,80524
20180326,80361
20180327,80373
20180328,80827
20180329,80924
20180330,81410
20180402,81619
20180403,81617
20180404,81512
20180405,81405
20180406,82174
20180409,82359
20180410,82131
20180411,82426
20180412,82584
20180413,82861
20180416,82856
20180417,82913
20180418,83218
20180419,83408
20180420,83276
20180423,83171
20180424,83165
20180425,83349
20180426,82996
20180427,83316
20180501,83997
20180502,83931
20180507,83835
20180508,84409
20180509,84414
20180510,84565
20180511,84880
20180514,85101
20180515,85082
20180516,84913
20180517,85044
20180518,84954
20180521,85113
20180522,85377
20180523,85661
20180524,85422
20180525,85472
20180528,85532
20180529,85636
20180530,85375
20180531,85565
20180601,85806
20180604,86040
20180605,86326
20180606,86296
20180607,86267
20180608,86385
20180611,86263
20180612,86380
20180613,86482
20180614,86448
20180615,86583
20180618,86520
20180619,86267
20180620,86107
20180621,86309
20180622,86173
20180625,86501
20180626,86260
20180627,86202
20180628,86419
20180629,86243
20180702,86642
20180703,86451
20180704,86650
20180705,86621
20180706,86728
20180709,86879
20180710,87234
20180711,87521
20180712,87285
20180713,87315
20180717,87431
20180718,87392
20180719,87633
20180720,87565
20180723,87533
20180724,87754
20180725,87940
20180726,88088
20180727,88390
20180730,88555
20180731,88532
20180801,88747
20180802,88626
20180803,88363
20180806,88639
20180807,88805
20180808,89065
20180809,89040
20180810,88920
20180813,88653
20180814,88450
20180815,88497
20180816,88240
20180817,88413
20180820,88520
20180821,88867
20180822,89016
20180823,88896
20180824,88948
20180827,88922
20180828,89152
20180829,89477
20180830,89421
20180831,89403
20180903,89403
20180904,89482
20180905,89194
20180906,88999
20180907,89055
20180910,88826
20180911,89017
20180912,88881
20180913,89046
20180914,89171
20180918,89256
20180919,89369
20180920,89450
20180921,89230
20180925,89465
20180926,89393
20180927,89490
20180928,89551
20181001,89693
20181002,89752
20181003,89744
20181004,89827
20181005,89225
20181009,88893
20181010,88864
20181011,88724
20181012,87756
20181015,87557
20181016,87505
20181017,87733
20181018,87946
20181019,87996
20181022,87869
20181023,87839
20181024,87359
20181025,87527
20181026,87156
20181029,87010
20181030,87306
20181031,87187
20181101,87483
20181102,87526
20181105,87621
20181106,87673
20181107,87750
20181108,88075
20181109,88289
20181112,88114
20181113,88084
20181114,87947
20181115,87789
20181116,87282
20181119,87292
20181120,87415
20181121,86890
20181122,86935
20181126,86717
20181127,87032
20181128,86914
20181129,87092
20181130,87442
20181203,87439
20181204,87887
20181205,87841
20181206,87848
20181207,86749
20181210,87139
20181211,86575
20181212,86852
20181213,86978
20181214,86919
20181217,86700
20181218,86393
20181219,86073
20181220,85870
20181221,85289
20181225,84939
20181226,84907
20181227,84905
20181228,84111
20190104,84693
20190107,85046
20190108,85466
20190109,85928
20190110,86176
20190111,86156
20190115,86350
20190116,86369
20190117,86527
20190118,86493
20190121,86791
20190122,86722
20190123,86696
20190124,86627
20190125,86519
20190128,86643
20190129,86581
20190130,86788
20190131,86930
20190201,87232
20190204,87413
20190205,87405
20190206,87675
20190207,87778
20190208,87576
20190212,87584
20190213,87848
20190214,88293
20190215,88254
20190218,88384
20190219,88250
20190220,88398
20190221,88524
20190222,88442
20190225,88551
20190226,88704
20190227,88711
20190228,88688
20190301,88656
20190304,88748
20190305,88803
20190306,88744
20190307,88651
20190308,88477
20190311,88163
20190312,88328
20190313,88568
20190314,88691
20190315,88793
20190318,88901
20190319,89074
20190320,89078
20190322,89147
20190325,89094
20190326,88872
20190327,89179
20190328,89161
20190329,89136
20190401,89227
20190402,89431
20190403,89529
20190404,89607
20190405,89616
20190408,89688
20190409,89694
20190410,89648
20190411,89702
20190412,89740
20190415,89777
20190416,89882
20190417,89938
20190418,89721
20190419,89585
20190422,89586
20190423,89583
20190424,89682
20190425,89798
20190426,89667
20190507,89665
20190508,89576
20190509,89384
20190510,89044
20190513,89479
20190514,89240
20190515,89339
20190516,89378
20190517,89723
20190520,89625
20190521,89724
20190522,89734
20190523,89724
20190524,89442
20190527,89673
20190528,89649
20190529,89670
20190530,89275
20190531,89345
20190603,89214
20190604,89340
20190605,89541
20190606,89774
20190607,89920
20190610,90125
20190611,90284
20190612,90500
20190613,90363
20190614,90431
20190617,90370
20190618,90354
20190619,90729
20190620,90770
20190621,91191
20190624,91043
20190625,90905
20190626,90986
20190627,90840
20190628,90771
20190701,90928
20190702,91237
20190703,91365
20190704,91622
20190705,91610
20190708,91493
20190709,91313
20190710,91151
20190711,91314
20190712,91244
20190716,91066
20190717,91023
20190718,91003
20190719,90929
20190722,91038
20190723,90844
20190724,90860
20190725,91018
20190726,90917
20190729,90942
20190730,91119
20190731,90982
20190801,90909
20190802,90732
20190805,90496
20190806,89960
20190807,89822
20190808,89664
20190809,90047
20190813,89971
20190814,90006
20190815,89846
20190816,89707
20190819,89957
20190820,90333
20190821,90315
20190822,90460
20190823,90509
20190826,90415
20190827,90226
20190828,90428
20190829,90368
20190830,90645
20190902,90742
20190903,90716
20190904,90667
20190905,90867
20190906,90929
20190909,90923
20190910,90895
20190911,90770
20190912,90842
20190913,90883
20190917,90763
20190918,90820
20190919,90866
20190920,90820
20190924,90836
20190925,90862
20190926,90658
20190927,90787
20190930,90893
20191001,91017
20191002,90979
20191003,90443
20191004,90207
20191007,90503
20191008,90620
20191009,90397
20191010,90440
20191011,90384
20191015,90291
20191016,90391
20191017,90461
20191018,90660
20191021,90638
20191023,90883
20191024,90873
20191025,90942
20191028,90885
20191029,90961
20191030,90934
20191031,90879
20191101,90995
20191105,91419
20191106,91366
20191107,91210
20191108,91236
20191111,90968
20191112,90938
20191113,91222
20191114,91078
20191115,91274
20191118,91303
20191119,91440
20191120,91419
20191121,91363
20191122,91197
20191125,91254
20191126,91446
20191127,91420
20191128,91635
20191129,91685
20191202,91639
20191203,91368
20191204,91057
20191205,91274
20191206,91280
20191209,91595
20191210,91642
20191211,91613
20191212,91750
20191213,91790
20191216,91921
20191217,92144
20191218,92216
20191219,92266
20191220,92240
20191223,92402
20191224,92469
20191225,92466
20191226,92464
20191227,92461
20191230,92538
20200106,93184
20200107,93212
20200108,93262
20200109,93281
20200110,93326
20200114,93605
20200115,93752
20200116,93795
20200117,93905
20200120,93621
20200121,93570
20200122,93443
20200123,93658
20200124,93367
20200127,93559
20200128,92989
20200129,93538
20200130,93773
20200131,93558
20200203,93511
20200204,93560
20200205,93845
20200206,94140
20200207,94343
20200210,94228
20200212,94629
20200213,95342
20200214,95269
20200217,95403
20200218,95352
20200219,95435
20200220,95488
20200221,95354
20200225,94716
20200226,94401
20200227,93856
20200228,92813
20200302,90890
20200303,91318
20200304,92328
20200305,92729
20200306,92666
20200309,91242
20200310,89061
20200311,88122
20200312,87497
20200313,84379
20200316,82948
20200317,81338
20200318,79439
20200319,77544
20200323,75792
20200324,73688
20200325,73973
20200326,75352
20200327,77433
20200330,77821
20200331,78243
20200401,79374
20200402,78981
20200403,78629
20200406,78733
20200407,79204
20200408,80247
20200409,79914
20200410,81336
20200413,81311
20200414,81309
20200415,82521
20200416,82174
20200417,81987
20200420,82676
20200421,82479
20200422,81836
20200423,81590
20200424,81860
20200427,81681
20200428,81916
20200430,82813
20200501,82693
20200507,82147
20200508,82306
20200511,82612
20200512,82571
20200513,82551
20200514,82130
20200515,81252
20200518,81584
20200519,82301
20200520,82584
20200521,82793
20200522,83222
20200525,83018
20200526,83007
20200527,83851
20200528,84416
20200529,84721
20200601,84597
20200602,84864
20200603,85492
20200604,86261
20200605,86510
20200608,87238
20200609,87815
20200610,87642
20200611,87484
20200612,86523
20200615,86019
20200616,85420
20200617,86777
20200618,86845
20200619,86546
20200622,86699
20200623,86292
20200624,86602
20200625,86081
20200626,85658
20200629,85881
20200630,85487
20200701,85583
20200702,85955
20200703,86686
20200706,86695
20200707,87039
20200708,86789
20200709,86828
20200710,86714
20200713,86491
20200714,86817
20200715,86732
20200716,87240
20200717,87241
20200720,87430
20200721,87458
20200722,87950
20200727,87874
20200728,87883
20200729,87944
20200730,88132
20200731,87813
20200803,87923
20200804,88001
20200805,88225
20200806,88462
20200807,88320
20200811,88503
20200812,88791
20200813,88616
20200814,88519
20200817,88145
20200818,88098
20200819,88049
20200820,87961
20200821,87608
20200824,87665
20200825,87897
20200826,88032
20200827,87933
20200828,87962
20200831,87765
20200901,87681
20200902,87571
20200903,88120
20200904,88538
20200907,87818
20200908,87722
20200909,87259
20200910,87346
20200911,87262
20200914,87021
20200915,87323
20200916,87510
20200917,87642
20200918,87361
20200923,86120
20200924,86167
20200925,85342
20200928,85239
20200929,85995
20200930,86019
20201001,86097
20201002,86219
20201005,86098
20201006,86610
20201007,86941
20201008,87022
20201009,87441
20201012,87528
20201013,87647
20201014,87747
20201015,87691
20201016,86974
20201019,87113
20201020,87067
20201021,86871
20201022,86744
20201023,86601
20201026,86881
20201027,86415
20201028,86166
20201029,85108
20201030,84955
20201102,84610
20201104,85949
20201105,86652
20201106,87526
20201109,87520
20201110,89020
20201111,88876
20201112,88828
20201113,88336
20201116,87937
20201117,88332
20201118,88072
20201119,88248
20201120,87540
20201124,87674
20201125,87858
20201126,87664
20201127,87497
20201130,87611
20201201,87105
20201202,87180
20201203,86998
20201204,86878
20201207,87009
20201208,86941
20201209,86957
20201210,86645
20201211,86286
20201214,86218
20201215,86246
20201216,85622
20201217,85874
20201218,85909
20201221,85855
20201222,84956
20201223,85114
20201224,85369
20201225,85298
20201228,85291
20201229,85622
20201230,85830
20210104,85836
20210105,86115
20210106,85785
20210107,85953
20210108,86081
20210112,86199
20210113,86075
20210114,86145
20210115,86298
20210118,86021
20210119,85908
20210120,86140
20210121,85975
20210122,85936
20210125,85527
20210126,85525
20210127,85560
20210128,84975
20210129,84528
20210201,84193
20210202,84173
20210203,84642
20210204,84715
20210205,84833
20210208,84985
20210209,85055
20210210,84919
20210212,85074
20210215,84984
20210216,84931
20210217,85185
20210218,84671
20210219,84426
20210222,84526
20210224,84145
20210225,84238
20210226,84486
20210301,83547
20210302,83957
20210303,84118
20210304,83986
20210305,83922
20210308,83377
20210309,83637
20210310,83971
20210311,84052
20210312,84399
20210315,84319
20210316,84441
20210317,84643
20210318,84296
20210319,84329
20210322,84033
20210323,84000
20210324,83846
20210325,83868
20210326,83593
20210329,84264
20210330,84541
20210331,84324
20210401,84444
20210402,84620
20210405,84603
20210406,84601
20210407,85015
20210408,85003
20210409,84936
20210412,84846
20210413,84772
20210414,84593
20210415,84777
20210416,84850
20210419,85217
20210420,85249
20210421,84900
20210422,84876
20210423,85069
20210426,85024
20210427,85300
20210428,85223
20210430,85413
20210506,85423
20210507,85518
20210510,85829
20210511,86111
20210512,85379
20210513,85225
20210514,85010
20210517,85567
20210518,85562
20210519,85651
20210520,85074
20210521,85257
20210524,85691
20210525,85661
20210526,85826
20210527,85806